星链-34511 (STARLINK-34511)

导读 | 豆包AI

STARLINK-34511是美国SpaceX公司星链星座的V2 Mini卫星,于2025年8月14日由猎鹰9号火箭从加州范登堡空军基地发射,进入极地低地球轨道。它是星链全球宽带互联网组网的组成部分,助力为全球,尤其是偏远地区提供高速网络接入。此次同批次共发射24颗同型号卫星,进一步推进星链星座部署,当时整个星座在轨卫星规模已超7760颗,持续拓展全球服务覆盖。

基本信息
目录编号:
65214
目录名称:
STARLINK-34511
国际标识:
2025-176S
轨道中心:
EARTH
卫星名称:
星链-34511
卫星全名:
星链-34511 (STARLINK-34511)
卫星状态:
在轨 (已飞行258 天)
发射日期:
2025-08-14 UTC
国别 :
美国 (US)
星等 :
--
轨道信息
数据来源 国际轨道数据
星历时间: 2026-04-29T12:00:02+0800
7小时前
查看轨道信息
半长轴: 6843.381km
偏心率: 0.000079
轨道倾角: 53.160°
近地点辐角 102.328°
升交点赤经 278.582°
平近点角 280.460°
近地点: 464.703km
远地点: 465.785km
周期: 93.900分钟
每日圈数: 15.335458
详细信息
固有亮度:
5
最大亮度:
2.5
卫星平台:
Starlink V1.0
覆盖范围:
全球
运营商:
太空探索技术公司
运营商所在国:
美国
制造商(研发单位):
太空探索技术公司
制造商所在国:
美国
使用方式:
暂无
卫星简介
Starlink 计划是 SpaceX 推出的全球卫星互联网项目,通过发射低轨道卫星,为全球尤其是偏远地区提供高速、低延迟的互联网服务。自 2019 年起,Starlink 已部署数千颗卫星,旨在缩小全球数字鸿沟,推动互联网普及。该项目还为军事、航空等行业提供通信支持,带来广泛经济效益。
2D轨道图
3D轨道图
轨道高度分析图
轨道倾角分析图
轨道综合分析图
查看轨道综合分析图